Location: Hains Lake
(37.8540°N, 99.8578°W)
Time: 21:27:28
(UTC+00:00)

deb Explorer IX - Pass Details

Date: 20 April 2021
Orbit: 541 x 1098 km, 38.8° (Epoch: 13 May)

Event Time Altitude Azimuth Distance (km) Brightness Sun altitude
Rises 12:37:10 0° 226° (SW) 2,683 ? 6.9°
Reaches altitude 10° 12:39:29 10° 216° (SW) 1,812 ? 7.4°
Maximum altitude 12:43:12 33° 152° (SSE) 968 ? 8.1°
Drops below altitude 10° 12:47:14 10° 87° (E) 1,976 ? 8.9°
Sets 12:49:52 0° 79° (ENE) 2,968 ? 9.4°
